This demonstration page uses our WeatherBlox Daily Observations layout. Learn more.

38.89511, -77.03637

Hourly Observations for February 1, 2016

Temp ( °F °C ) Dew Point ( °F °C ) Humidity (%) Winds ( mph kmh ) Pressure ( in mb ) Visibility ( mi km ) Precip ( " mm )
12:52 am 00:52 Mostly Cloudy 47 8.3 36 2.2 66 66 SSW 7 11 29.84 1010 10 16.0934 0 0
1:52 am 01:52 Cloudy 50 10 39 3.9 66 66 SSW 12 19 29.83 1010 10 16.0934 0 0
2:52 am 02:52 Cloudy 48 8.9 39 3.9 71 71 S 14 22 29.81 1010 10 16.0934 0 0
3:52 am 03:52 Cloudy 46 7.8 39 3.9 77 77 S 12 19 29.82 1010 10 16.0934 0 0
4:52 am 04:52 Mostly Cloudy 46 7.8 39 3.9 77 77 S 12 19 29.82 1010 10 16.0934 0 0
5:52 am 05:52 Cloudy 46 7.8 40 4.4 79 79 S 13 20 29.83 1010 10 16.0934 0 0
6:52 am 06:52 Mostly Cloudy 47 8.3 41 5 80 80 S 9 15 29.84 1010 10 16.0934 0 0
7:52 am 07:52 Mostly Cloudy 47 8.3 41 5 80 80 S 9 15 29.85 1011 10 16.0934 0 0
8:52 am 08:52 Mostly Cloudy 47 8.3 41 5 80 80 SSW 9 15 29.86 1011 10 16.0934 0 0
9:52 am 09:52 Partly Cloudy 52 11.1 44 6.7 75 75 S 8 13 29.87 1011 10 16.0934 0 0
10:52 am 10:52 Mostly Cloudy 54 12.2 45 7.2 72 72 Calm 29.88 1012 10 16.0934 0 0
11:52 am 11:52 Mostly Cloudy 59 15 45 7.2 60 60 WNW 8 13 29.88 1012 10 16.0934 0 0
12:52 pm 12:52 Cloudy 60 15.6 46 7.8 60 60 NNW 7 11 29.87 1012 10 16.0934 0 0
1:52 pm 13:52 Cloudy 58 14.4 41 5 53 53 NNW 16 26 29.88 1012 10 16.0934 0 0
2:52 pm 14:52 Cloudy with Light Rain 53 11.7 43 6.1 69 69 NW 16 26 29.92 1013 7 11.26538 0 0.0254
3:52 pm 15:52 Cloudy with Light Rain 49 9.4 44 6.7 83 83 NNW 8 13 29.93 1014 10 16.0934 0.1 2.54
4:46 pm 16:46 Cloudy 46 8 45 7 93 93 N 5 7 29.94 1014 10 16.0934 0 0
4:52 pm 16:52 Cloudy 47 8.3 45 7.2 93 93 N 7 11 29.95 1014 10 16.0934 0.02 0.508
5:31 pm 17:31 Cloudy with Light Rain 46 7.8 44 6.7 93 93 N 6 9 29.97 1015 10 16.0934 0 0.0254
5:52 pm 17:52 Cloudy 48 8.9 44 6.7 86 86 NNW 6 9 29.98 1015 10 16.0934 0 0.0254
5:57 pm 17:57 Cloudy with Light Rain 49 9.4 44 6.7 83 83 NNW 8 13 29.97 1015 10 16.0934 0 0.0254
6:52 pm 18:52 Cloudy 46 7.8 44 6.7 93 93 N 3 6 30.01 1016 10 16.0934 0 0.0254
7:52 pm 19:52 Cloudy 48 8.9 44 6.7 86 86 N 7 11 30.02 1017 10 16.0934 0 0.0254
8:52 pm 20:52 Cloudy 47 8.3 43 6.1 86 86 N 7 11 30.04 1017 10 16.0934 0 0
9:52 pm 21:52 Cloudy 44 6.7 42 5.6 93 93 N 6 9 30.06 1018 10 16.0934 0 0
10:52 pm 22:52 Cloudy 47 8.3 41 5 80 80 NNW 9 15 30.08 1019 10 16.0934 0 0
11:52 pm 23:52 Mostly Cloudy 45 7.2 40 4.4 83 83 NNW 9 15 30.09 1019 10 16.0934 0 0

Powered by AerisWeather